Location: Zagreb
(45.8000°N, 16.0000°E)
Time: 00:37:22
(UTC+02:00)

Envisat - Pass Details

Date: 27 April 2024
Orbit: 762 x 764 km, 98.3° (Epoch: 27 May)

Event Time Altitude Azimuth Distance (km) Brightness Sun altitude
Rises 03:13:40 0° 26° (NNE) 3,238 7.7 -22.4°
Reaches altitude 10° 03:16:31 10° 42° (NE) 2,306 6.6 -22.1°
Maximum altitude 03:20:22 21° 92° (E) 1,650 5.1 -21.7°
Drops below altitude 10° 03:24:11 10° 141° (SE) 2,292 5.3 -21.3°
Enters shadow 03:25:17 - 149° (SSE) 2,631 5.6 -21.2°
